Location: Newark
(33.8369°S, 148.6756°E)
Time: 14:50:51
(UTC+00:00)

Envisat - Visible Passes

Search period start: 27 September 2020 00:00
Search period end: 07 October 2020 00:00
Orbit: 764 x 766 km, 98.1° (Epoch: 27 September)

Date Brightness Start Highest point End Pass type
(mag) Time Alt. Az. Time Alt. Az. Time Alt. Az.
27 Sep 3.2 19:19:20 10° NNE 19:24:25 81° ESE 19:29:35 10° S visible
28 Sep 5.8 09:12:15 10° SSW 09:16:01 21° WSW 09:19:46 10° WNW visible
28 Sep 4.9 18:43:14 10° NE 18:47:47 34° ESE 18:52:24 10° S visible
29 Sep 4.2 08:34:34 10° S 08:39:30 48° WSW 08:44:23 10° NW visible
29 Sep 6.2 18:08:31 10° E 18:11:22 15° ESE 18:14:13 10° SSE visible
30 Sep 6.4 09:39:27 10° SW 09:41:07 12° WSW 09:42:48 10° W visible
30 Sep 3.7 19:08:04 10° NNE 19:13:05 63° ESE 19:18:11 10° S visible
01 Oct 5.4 09:00:31 10° SSW 09:04:46 27° WSW 09:08:58 10° NW visible
01 Oct 5.4 18:32:17 10° NE 18:36:32 27° ESE 18:40:46 10° SSE visible
02 Oct 3.7 08:23:07 10° S 08:28:11 62° WSW 08:33:13 10° NNW visible
02 Oct 6.4 17:58:26 10° E 18:00:09 12° ESE 18:01:52 10° SE visible
03 Oct 6.2 09:27:04 10° SSW 09:29:55 15° WSW 09:32:44 10° W visible
03 Oct 4.2 18:56:53 10° NNE 19:01:46 48° ESE 19:06:43 10° S visible
04 Oct 5.0 08:48:53 10° S 08:53:29 34° WSW 08:58:03 10° NW visible
04 Oct 5.8 18:21:30 10° ENE 18:25:15 21° ESE 18:29:03 10° SSE visible
06 Oct 6.0 09:15:07 10° SSW 09:18:41 19° WSW 09:22:13 10° WNW visible
06 Oct 4.8 18:45:49 10° NE 18:50:28 37° ESE 18:55:11 10° S visible
